Location: Newark
(37.9717°N, 99.9089°W)
Time: 16:33:11
(UTC+00:00)

X-37B - Visible Passes

Search period start: 25 September 2021 00:00
Search period end: 05 October 2021 00:00
Orbit: 381 x 393 km, 45.0° (Epoch: 29 August)

Date Brightness Start Highest point End Pass type
(mag) Time Alt. Az. Time Alt. Az. Time Alt. Az.
25 Sep 2.1 11:21:55 19° NW 11:23:15 26° N 11:25:58 10° NE visible
26 Sep 3.0 10:26:12 21° NNE 10:26:12 21° NNE 10:27:37 10° NE visible
26 Sep 2.5 11:59:21 10° NW 12:01:54 22° N 12:04:27 10° NE visible
27 Sep 2.4 11:02:46 21° NNW 11:03:18 22° N 11:05:52 10° NE visible
28 Sep 3.9 10:07:03 12° NE 10:07:03 12° NE 10:07:26 10° NE visible
28 Sep 2.5 11:39:20 10° NW 11:41:58 23° N 11:44:35 10° ENE visible
29 Sep 2.7 10:43:38 21° N 10:43:38 21° N 10:45:54 10° NE visible
30 Sep 2.2 11:20:17 17° NW 11:22:00 29° NNE 11:24:49 10° ENE visible
01 Oct 3.3 10:24:41 18° NE 10:24:41 18° NE 10:26:03 10° ENE visible
01 Oct 0.8 11:57:17 10° WNW 12:00:26 67° NNE 12:03:35 10° ESE visible
02 Oct 1.6 11:01:28 37° N 11:01:59 40° NNE 11:05:00 10° E visible
03 Oct 4.1 10:06:03 11° ENE 10:06:03 11° ENE 10:06:17 10° ENE visible
03 Oct 0.6 11:38:21 21° WNW 11:40:17 65° SSW 11:43:24 10° SE visible
04 Oct 2.1 10:43:03 35° E 10:43:03 35° E 10:45:02 10° ESE visible
